This demonstration page uses our WeatherBlox Daily Observations layout. Learn more.

Left ArrowRight Arrow

42.10163, -102.87215

Hourly Observations for April 13, 2021

Temp ( °F °C ) Dew Point ( °F °C ) Humidity (%) Winds ( mph kmh ) Pressure ( in mb ) Visibility ( mi km ) Precip ( " mm )
12:53 am 00:53 Clear 20 -6.7 14 -10 78 78 WSW 9 15 30.31 1026 10 16.0934 0 0
1:53 am 01:53 Clear 25 -3.9 17 -8.3 72 72 WNW 9 15 30.28 1026 10 16.0934 0 0
2:53 am 02:53 Clear 18 -7.8 15 -9.4 88 88 W 9 15 30.29 1026 10 16.0934 0 0
3:53 am 03:53 Clear 22 -5.6 17 -8.3 82 82 NW 9 15 30.27 1025 10 16.0934 0 0
4:53 am 04:53 Clear 25 -3.9 17 -8.3 72 72 NW 15 24 30.25 1024 10 16.0934 0 0
5:53 am 05:53 Clear 25 -3.9 16 -8.9 69 69 NW 16 26 30.27 1025 10 16.0934 0 0
6:53 am 06:53 Sunny 26 -3.3 17 -8.3 69 69 NW 12 19 30.3 1026 10 16.0934 0 0
7:53 am 07:53 Sunny 30 -1.1 18 -7.8 61 61 NW 18 30 30.3 1026 10 16.0934 0 0
8:53 am 08:53 Sunny 33 0.6 18 -7.8 54 54 NW 20 31 30.31 1026 10 16.0934 0 0
9:53 am 09:53 Sunny 36 2.2 17 -8.3 46 46 NW 14 22 30.31 1027 10 16.0934 0 0
10:53 am 10:53 Sunny 40 4.4 18 -7.8 41 41 NNW 17 28 30.29 1026 10 16.0934 0 0
11:53 am 11:53 Sunny 42 5.6 19 -7.2 40 40 NNW 17 28 30.28 1025 10 16.0934 0 0
12:53 pm 12:53 Sunny 43 6.1 19 -7.2 38 38 NNW 13 20 30.26 1025 10 16.0934 0 0
1:53 pm 13:53 Mostly Sunny 44 6.7 18 -7.8 35 35 NNW 15 24 30.23 1024 10 16.0934 0 0
2:53 pm 14:53 Mostly Sunny 45 7.2 16 -8.9 31 31 W 10 17 30.24 1024 10 16.0934 0 0
3:53 pm 15:53 Sunny 46 7.8 16 -8.9 30 30 NW 13 20 30.21 1023 10 16.0934 0 0
4:53 pm 16:53 Sunny 45 7.2 15 -9.4 30 30 WNW 15 24 30.2 1023 10 16.0934 0 0
5:53 pm 17:53 Sunny 44 6.7 14 -10 30 30 WNW 10 17 30.21 1023 10 16.0934 0 0
6:53 pm 18:53 Sunny 41 5 16 -8.9 36 36 N 16 26 30.23 1024 10 16.0934 0 0
7:53 pm 19:53 Clear 35 1.7 16 -8.9 46 46 N 14 22 30.26 1025 10 16.0934 0 0
8:53 pm 20:53 Clear 32 0 16 -8.9 52 52 N 10 17 30.28 1026 10 16.0934 0 0
9:53 pm 21:53 Clear 31 -0.6 16 -8.9 54 54 N 14 22 30.29 1026 10 16.0934 0 0
10:53 pm 22:53 Clear 26 -3.3 16 -8.9 66 66 NNE 8 13 30.31 1027 10 16.0934 0 0
11:53 pm 23:53 Mostly Clear 24 -4.4 17 -8.3 75 75 NNE 8 13 30.33 1027 10 16.0934 0 0

Powered by AerisWeather